#timestamp,LO_Frequency,Hit 
1498708815.6,286046409.3,N
1498708835.4,286046412.3,N
1498708855.2,286046411.2,N
1498708875.1,286046411.8,N
1498708876.0,286046411.8,N
1498708895.8,286046412.4,N
1498708915.6,286046413.5,N
1498708935.5,286046412.4,N
1498708955.3,286046411.9,N
1498708975.1,286046411.8,N
1498708995.9,286046412.3,N
1498709015.7,286046412.3,N
1498709035.5,286046411.2,N
1498709055.4,286046411.5,N
1498709075.2,286046413.1,N
1498709095.0,286046412.3,N
1498709095.9,286046412.3,N
1498709115.8,286046411.8,N
1498709135.6,286046412.1,N
1498709155.4,286046409.3,N
1498709175.3,286046411.7,N
1498709195.1,286046413.2,N
1498709196.0,286046413.2,N
1498709215.8,286046413.4,N
1498709235.7,286046411.4,N
1498709255.5,286046412.0,N
1498709275.3,286046411.7,N
1498709295.2,286046413.1,N
1498709315.9,286046412.8,N
1498709335.7,286046412.6,N
1498709355.6,286046411.6,N
1498709375.4,286046412.4,N
1498709395.2,286046409.5,N
1498709415.1,286046411.0,N
1498709416.0,286046411.0,N
1498709435.8,286046411.8,N
1498709455.6,286046410.2,N
1498709475.5,286046412.4,N
1498709495.3,286046413.5,N
1498709515.1,286046412.2,N
1498709535.9,286046409.4,N
1498709555.7,286046411.0,N
1498709575.5,286046410.9,N
1498709595.4,286046412.7,N
1498709615.2,286046413.5,N
1498709635.0,286046411.7,N
1498709635.9,286046411.7,N
1498709655.8,286046414.0,N
1498709675.6,286046412.7,N
1498709695.4,286046413.7,N
1498709715.3,286046411.6,N
1498709735.1,286046412.0,N
1498709736.0,286046412.0,N
1498709755.8,286046409.6,N
1498709775.7,286046409.8,N
1498709795.5,286046413.2,N
1498709815.3,286046412.6,N
1498709835.2,286046413.5,N
1498709855.9,286046413.3,N
1498709875.7,286046412.6,N
1498709895.6,286046415.4,N
1498709915.4,286046415.3,N
1498709935.2,286046412.7,N
1498709955.1,286046410.9,N
1498709956.0,286046410.9,N
1498709975.8,286046412.1,N
1498709995.6,286046413.1,N
1498710015.5,286046413.1,N
1498710035.3,286046413.4,N
1498710055.1,286046413.4,N
1498710075.9,286046415.2,N
1498710095.7,286046412.9,N
1498710115.5,286046412.6,N
1498710135.4,286046417.2,N
1498710155.2,286046413.1,N
1498710175.0,286046414.1,N
1498710175.9,286046414.1,N
1498710195.8,286046412.9,N
1498710215.6,286046415.2,N
1498710235.4,286046415.6,N
1498710255.3,286046415.6,N
1498710275.1,286046413.0,N
1498710276.0,286046413.0,N
1498710295.8,286046415.2,N
1498710315.7,286046413.4,N
1498710335.5,286046413.6,N
1498710355.3,286046415.6,N
1498710375.2,286046415.6,N
1498710395.9,286046412.5,N
1498710415.7,286046412.6,N
1498710435.6,286046412.5,N
1498710455.4,286046414.5,N
1498710475.2,286046414.9,N
1498710495.1,286046416.4,N
1498710496.0,286046416.4,N
1498710515.8,286046417.1,N
1498710535.6,286046415.3,N
1498710555.5,286046415.4,N
1498710575.3,286046412.9,N
1498710595.1,286046413.3,N
1498710615.9,286046415.5,N
1498710635.7,286046410.9,N
1498710655.5,286046413.4,N
1498710675.4,286046413.7,N
1498710695.2,286046413.8,N
1498710715.0,286046411.8,N
1498710715.9,286046411.8,N
1498710735.8,286046411.6,N
1498710755.6,286046411.7,N
1498710775.4,286046413.3,N
1498710795.3,286046414.8,N
1498710815.1,286046415.4,N
1498710816.0,286046415.4,N
1498710835.8,286046414.3,N
1498710855.7,286046415.6,N
1498710875.5,286046413.8,N
1498710895.3,286046411.3,N
1498710915.2,286046412.1,N
1498710935.9,286046413.9,N
1498710955.7,286046413.6,N
1498710975.6,286046414.0,N
1498710995.4,286046412.7,Y
1498711015.2,286047017.0,N
1498711035.1,286047016.8,N
1498711036.0,286047016.8,N
1498711055.8,286047014.2,N
1498711075.6,286047017.1,N
1498711095.5,286047014.3,N
1498711115.3,286047018.4,N
1498711135.1,286047014.1,N
1498711155.9,286047017.1,N
1498711175.7,286047014.7,N
1498711195.5,286047015.7,N
1498711215.4,286047015.7,N
1498711235.2,286047018.6,N
1498711255.0,286047019.9,N
1498711255.9,286047019.9,N
1498711275.8,286047019.2,N
1498711295.6,286047019.5,N
1498711315.4,286047018.2,N
1498711335.3,286047018.7,N
1498711355.1,286047017.4,N
1498711356.0,286047017.4,N
1498711375.8,286047018.0,N
1498711395.7,286047017.9,N
1498711415.5,286047016.5,N
1498711435.3,286047017.0,N
1498711455.2,286047017.1,N
1498711475.9,286047016.9,N
1498711495.7,286047020.2,N
1498711515.6,286047019.7,N
1498711535.4,286047019.3,N
1498711555.2,286047017.9,N
1498711575.1,286047015.9,N
1498711576.0,286047015.9,N
1498711595.8,286047015.8,N
1498711615.6,286047016.8,N
1498711635.5,286047018.7,N
1498711655.3,286047016.3,N
1498711675.1,286047016.4,N
1498711695.9,286047016.2,N
1498711715.7,286047016.3,N
1498711735.5,286047014.4,N
1498711755.4,286047016.6,N
1498711775.2,286047016.7,N
1498711795.0,286047014.7,N
1498711795.9,286047014.7,N
1498711815.8,286047015.2,N
1498711835.6,286047015.2,N
1498711855.4,286047014.5,N
1498711875.3,286047015.0,N
1498711895.1,286047012.9,N
1498711896.0,286047012.9,N
1498711915.8,286047015.2,N
1498711935.7,286047012.5,N
1498711955.5,286047015.5,N
1498711975.3,286047015.5,N
1498711995.2,286047014.3,N
1498712015.9,286047014.3,N
1498712035.7,286047015.3,N
1498712055.6,286047016.4,N
1498712075.4,286047018.6,N
1498712095.2,286047014.4,N
1498712115.1,286047016.2,N
1498712116.0,286047016.2,N
1498712135.8,286047014.3,N
1498712155.6,286047017.2,N
1498712175.5,286047016.8,N
1498712195.3,286047016.7,N
1498712215.1,286047018.1,N
1498712235.9,286047018.3,N
1498712255.7,286047016.2,N
1498712275.5,286047018.5,N
1498712295.4,286047018.8,N
1498712315.2,286047018.3,N
1498712335.0,286047015.9,N
1498712335.9,286047015.9,N
1498712355.8,286047016.5,N
1498712375.6,286047016.5,N
1498712395.4,286047017.0,N
